TimeEDT,TemperatureF,Dew PointF,Humidity,Sea Level PressureIn,VisibilityMPH,Wind Direction,Wind SpeedMPH,Gust SpeedMPH,PrecipitationIn,Events,Conditions,WindDirDegrees,DateUTC
12:53 AM,68.0,60.1,76,30.04,10.0,ESE,8.1,-,N/A,,Clear,120,2014-04-14 04:53:00
1:53 AM,69.1,60.1,73,30.02,10.0,SE,8.1,-,N/A,,Clear,140,2014-04-14 05:53:00
2:53 AM,68.0,59.0,73,30.01,10.0,SSE,6.9,-,N/A,,Clear,150,2014-04-14 06:53:00
3:53 AM,66.9,57.9,73,29.99,10.0,SSE,6.9,-,N/A,,Clear,150,2014-04-14 07:53:00
4:53 AM,66.0,59.0,78,29.97,10.0,SSE,6.9,-,N/A,,Partly Cloudy,150,2014-04-14 08:53:00
5:53 AM,66.0,60.1,81,29.96,10.0,SSE,6.9,-,N/A,,Scattered Clouds,150,2014-04-14 09:53:00
8:53 AM,69.1,63.0,81,29.98,10.0,South,11.5,-,N/A,,Scattered Clouds,170,2014-04-14 12:53:00
9:53 AM,72.0,64.0,76,30.00,10.0,South,13.8,-,N/A,,Mostly Cloudy,180,2014-04-14 13:53:00
10:53 AM,75.0,64.0,69,29.99,10.0,South,11.5,21.9,N/A,,Partly Cloudy,170,2014-04-14 14:53:00
11:14 AM,75.2,64.4,69,30.00,10.0,South,13.8,-,N/A,,Mostly Cloudy,180,2014-04-14 15:14:00
11:53 AM,75.9,64.9,69,29.99,10.0,South,15.0,-,N/A,,Mostly Cloudy,170,2014-04-14 15:53:00
12:53 PM,79.0,64.9,62,29.96,10.0,South,13.8,-,N/A,,Mostly Cloudy,180,2014-04-14 16:53:00
2:53 PM,82.0,62.1,51,29.92,10.0,South,9.2,-,N/A,,Mostly Cloudy,190,2014-04-14 18:53:00
3:53 PM,82.0,62.1,51,29.90,10.0,South,12.7,-,N/A,,Mostly Cloudy,190,2014-04-14 19:53:00
5:53 PM,80.1,61.0,52,29.86,10.0,South,11.5,-,N/A,,Mostly Cloudy,170,2014-04-14 21:53:00
6:53 PM,79.0,61.0,54,29.85,10.0,South,10.4,-,N/A,,Overcast,190,2014-04-14 22:53:00
7:53 PM,77.0,62.1,60,29.85,10.0,SSW,10.4,-,0.00,,Overcast,200,2014-04-14 23:53:00
8:53 PM,73.0,64.9,76,29.86,10.0,Calm,Calm,-,0.00,,Overcast,0,2014-04-15 00:53:00
9:53 PM,70.0,66.0,87,29.84,10.0,Calm,Calm,-,N/A,,Clear,0,2014-04-15 01:53:00
10:53 PM,71.1,64.9,81,29.84,10.0,SSW,4.6,-,N/A,,Clear,200,2014-04-15 02:53:00
11:53 PM,70.0,64.9,84,29.86,10.0,SSW,4.6,-,0.00,Rain,Light Rain,210,2014-04-15 03:53:00